TimeBST,TemperatureF,Dew PointF,Humidity,Sea Level PressureIn,VisibilityMPH,Wind Direction,Wind SpeedMPH,Gust SpeedMPH,PrecipitationIn,Events,Conditions,WindDirDegrees,DateUTC
12:50 AM,56,54,91,29.90,11,SW,13.8,,,,Scattered Clouds,230,2013-06-21 23:50:00
3:50 AM,54,52,92,29.86,8,SSW,15.0,,,,Mostly Cloudy,210,2013-06-22 02:50:00
5:20 AM,53.6,50.0,88,29.83,6.2,SSW,17.3,-,N/A,Rain,Light Rain,210,2013-06-22 04:20:00
5:50 AM,55.4,50.0,82,29.83,6.2,SSW,16.1,-,N/A,Rain,Light Rain,210,2013-06-22 04:50:00
6:20 AM,53.6,51.8,94,29.83,3.7,SSW,16.1,-,N/A,Rain,Light Rain,210,2013-06-22 05:20:00
6:50 AM,54,52,92,29.83,10,SSW,17.3,,,Rain,Rain,210,2013-06-22 05:50:00
6:50 AM,53.6,51.8,94,29.83,5.0,SSW,16.1,-,N/A,,Mostly Cloudy,210,2013-06-22 05:50:00
7:20 AM,53.6,50.0,88,29.80,5.0,SSW,20.7,-,N/A,,Mostly Cloudy,210,2013-06-22 06:20:00
7:50 AM,53.6,51.8,94,29.80,3.7,SSW,21.9,-,N/A,Rain,Light Rain,200,2013-06-22 06:50:00
8:20 AM,53.6,51.8,94,29.80,3.7,SSW,19.6,-,N/A,,Mostly Cloudy,200,2013-06-22 07:20:00
8:50 AM,53.6,51.8,94,29.80,3.7,SSW,20.7,-,N/A,,Mostly Cloudy,200,2013-06-22 07:50:00
9:20 AM,55.4,53.6,94,29.77,5.0,SSW,25.3,38.0,N/A,,Mostly Cloudy,210,2013-06-22 08:20:00
9:50 AM,56,55,95,29.79,3,SSW,24.2,,,,Mist,210,2013-06-22 08:50:00
9:50 AM,55.4,53.6,94,29.77,3.7,SSW,24.2,-,N/A,,Mostly Cloudy,210,2013-06-22 08:50:00
10:20 AM,55.4,53.6,94,29.77,3.7,SSW,23.0,-,N/A,Rain,Light Rain,210,2013-06-22 09:20:00
10:50 AM,55.4,53.6,94,29.77,6.2,SSW,21.9,-,N/A,Rain,Light Rain,210,2013-06-22 09:50:00
11:20 AM,57.2,55.4,94,29.74,6.2,SSW,21.9,-,N/A,,Mostly Cloudy,210,2013-06-22 10:20:00
11:50 AM,57.2,55.4,94,29.74,6.2,SSW,24.2,-,N/A,Rain,Light Rain,210,2013-06-22 10:50:00
12:20 PM,59.0,55.4,88,29.74,6.2,SSW,24.2,-,N/A,,Mostly Cloudy,210,2013-06-22 11:20:00
12:50 PM,59,56,88,29.76,6,SSW,23.0,,,,Light Haze,210,2013-06-22 11:50:00
12:50 PM,59.0,55.4,88,29.74,5.6,SSW,24.2,-,N/A,,Mostly Cloudy,210,2013-06-22 11:50:00
1:20 PM,60.8,55.4,82,29.74,6.2,SW,24.2,39.1,N/A,,Mostly Cloudy,220,2013-06-22 12:20:00
1:50 PM,62.6,53.6,72,29.71,6.2,SSW,25.3,-,N/A,,Mostly Cloudy,210,2013-06-22 12:50:00
2:20 PM,62.6,53.6,72,29.74,6.2,SSW,23.0,-,N/A,,Mostly Cloudy,210,2013-06-22 13:20:00
2:50 PM,64.4,53.6,68,29.71,6.2,SSW,23.0,35.7,N/A,,Scattered Clouds,210,2013-06-22 13:50:00
3:20 PM,64.4,53.6,68,29.71,6.2,SSW,24.2,35.7,N/A,,Scattered Clouds,210,2013-06-22 14:20:00
3:50 PM,64,53,59,29.73,11,SW,21.9,,,,Mostly Cloudy,220,2013-06-22 14:50:00
3:50 PM,66.2,53.6,64,29.71,6.2,SW,21.9,-,N/A,,Scattered Clouds,220,2013-06-22 14:50:00
4:20 PM,62.6,51.8,68,29.71,6.2,SW,20.7,-,N/A,,Scattered Clouds,230,2013-06-22 15:20:00
4:50 PM,62.6,50.0,63,29.71,6.2,SW,24.2,-,N/A,,Mostly Cloudy,230,2013-06-22 15:50:00
5:20 PM,60.8,50.0,68,29.71,6.2,SW,24.2,35.7,N/A,,Mostly Cloudy,230,2013-06-22 16:20:00
5:50 PM,60.8,50.0,68,29.71,6.2,SW,23.0,34.5,N/A,,Scattered Clouds,230,2013-06-22 16:50:00
6:20 PM,60.8,50.0,68,29.71,6.2,SW,25.3,38.0,N/A,,Mostly Cloudy,230,2013-06-22 17:20:00
6:50 PM,59,50,63,29.73,14,SW,23.0,,,,Scattered Clouds,230,2013-06-22 17:50:00
6:50 PM,59.0,50.0,72,29.71,6.2,SW,21.9,-,N/A,,Scattered Clouds,230,2013-06-22 17:50:00
7:20 PM,59.0,50.0,72,29.71,6.2,SW,20.7,-,N/A,,Mostly Cloudy,230,2013-06-22 18:20:00
7:50 PM,57.2,50.0,77,29.71,6.2,SW,21.9,33.4,N/A,,Mostly Cloudy,230,2013-06-22 18:50:00
8:20 PM,57.2,50.0,77,29.71,6.2,SW,20.7,-,N/A,,Mostly Cloudy,220,2013-06-22 19:20:00
9:50 PM,56,51,76,29.74,9,SSW,19.6,,,,Mostly Cloudy,210,2013-06-22 20:50:00